Location: Ecklingerode
(51.5036°N, 10.3122°E)
Time: 01:44:48
(UTC+00:00)

CZ-4C R/B - Pass Details

Date: 29 October 2020
Orbit: 624 x 1378 km, 63.4° (Epoch: 23 November)

Event Time Altitude Azimuth Distance (km) Brightness Sun altitude
Rises 20:27:42 0° 314° (NW) 3,819 6.4 -41.2°
Reaches altitude 10° 20:30:16 10° 308° (NW) 2,967 5.7 -41.5°
Enters shadow 20:34:49 37° 279° (W) 1,778 4.0 -42.1°
